EW3600 Weather Reports


time (UTC)temp
C
wind
direction
speed
KPH
gust
KPH
rain 1hr
cm
rain 24hr
cm
rain mn
cm
humidity
%
barometer
mb
20260906231515 24 191 12.9 29.0 0.00 0.00 0.00 32 1003.2
20260906230015 25 159 17.7 30.6 0.00 0.00 0.00 30 1003.3
20260906224556 24 184 19.3 25.7 0.00 0.00 0.00 30 1003.3
20260906223055 25 161 25.7 33.8 0.00 0.00 0.00 28 1003.5
20260906221535 25 186 25.7 38.6 0.00 0.00 0.00 28 1003.7
20260906220034 25 181 24.1 38.6 0.00 0.00 0.00 25 1003.7
20260906214513 25 174 25.7 38.6 0.00 0.00 0.00 25 1003.9
20260906213011 25 255 30.6 43.5 0.00 0.00 0.00 24 1004.0
20260906211554 25 174 30.6 45.1 0.00 0.00 0.00 23 1004.0
20260906210055 25 181 37.0 53.1 0.00 0.00 0.00 23 1004.3
20260906204554 25 165 37.0 51.5 0.00 0.00 0.00 21 1004.6
20260906203032 26 201 33.8 49.9 0.00 0.00 0.00 20 1004.6
20260906201512 25 212 29.0 45.1 0.00 0.00 0.00 20 1004.7
20260906200008 26 152 27.4 51.5 0.00 0.00 0.00 21 1004.8
20260906194548 25 217 29.0 57.9 0.00 0.00 0.00 23 1004.8
20260906193046 25 249 29.0 43.5 0.00 0.00 0.00 23 1004.8
20260906191529 25 195 22.5 48.3 0.00 0.00 0.00 25 1004.8
20260906190021 25 290 30.6 46.7 0.00 0.00 0.00 24 1005.2
20260906184501 25 226 30.6 48.3 0.00 0.00 0.00 24 1005.6
20260906183058 25 187 35.4 46.7 0.00 0.00 0.00 24 1005.8
20260906181555 25 205 30.6 46.7 0.00 0.00 0.00 23 1006.1
20260906180054 24 203 30.6 51.5 0.00 0.00 0.00 22 1006.3
20260906174535 24 159 30.6 48.3 0.00 0.00 0.00 23 1006.6
20260906173012 23 198 30.6 46.7 0.00 0.00 0.00 21 1006.8
20260906171511 23 188 27.4 38.6 0.00 0.00 0.00 23 1006.9
20260906170100 23 195 24.1 37.0 0.00 0.00 0.00 27 1007.1
20260906164552 23 184 25.7 35.4 0.00 0.00 0.00 27 1007.2
20260906163042 22 143 24.1 32.2 0.00 0.00 0.00 28 1007.3
20260906161533 22 163 17.7 27.4 0.00 0.00 0.00 28 1007.5
20260906160015 22 154 11.3 24.1 0.00 0.00 0.00 28 1007.6
20260906154519 21 136 12.9 20.9 0.00 0.00 0.00 29 1007.7
20260906153058 21 150 16.1 20.9 0.00 0.00 0.00 31 1007.9
20260906151601 20 129 9.7 12.9 0.00 0.00 0.00 33 1007.8
20260906150038 19 108 4.8 8.0 0.00 0.00 0.00 35 1007.9
20260906144538 18 77 0.0 3.2 0.00 0.00 0.00 41 1008.0
20260906143028 17 34 1.6 3.2 0.00 0.00 0.00 39 1007.9
20260906141516 15 73 0.0 3.2 0.00 0.00 0.00 43 1007.7
20260906140059 15 37 0.0 3.2 0.00 0.00 0.00 47 1007.5
20260906134557 15 85 0.0 1.6 0.00 0.00 0.00 41 1007.2
20260906133036 -17 0.0 0.0 0.00 0.00 0.00 1007.1
20260906131542 -17 0.0 0.0 0.00 0.00 0.00 1007.0
20260906130010 -17 0.0 0.0 0.00 0.00 0.00 1007.0
20260906124506 -17 0.0 0.0 0.00 0.00 0.00 1006.9
20260906123044 -17 0.0 0.0 0.00 0.00 0.00 1006.8
20260906121540 -17 0.0 0.0 0.00 0.00 0.00 1006.7
20260906120018 -17 0.0 0.0 0.00 0.00 0.00 1006.8
20260906114515 -17 0.0 0.0 0.00 0.00 0.00 1006.7
20260906113059 -17 0.0 0.0 0.00 0.00 0.00 1006.7
20260906111604 -17 0.0 0.0 0.00 0.00 0.00 1006.7
20260906110026 -17 0.0 0.0 0.00 0.00 0.00 1006.7
20260906104534 -17 0.0 0.0 0.00 0.00 0.00 1006.6
20260906103001 -17 0.0 0.0 0.00 0.00 0.00 1006.5
20260906101557 -17 0.0 0.0 0.00 0.00 0.00 1006.6
20260906100035 -17 0.0 0.0 0.00 0.00 0.00 1006.4
20260906094537 -17 0.0 0.0 0.00 0.00 0.00 1006.3
20260906093008 -17 0.0 0.0 0.00 0.00 0.00 1006.3
20260906091507 -17 0.0 0.0 0.00 0.00 0.00 1006.3
20260906090043 -17 0.0 0.0 0.00 0.00 0.00 1006.4
20260906084548 -17 0.0 0.0 0.00 0.00 0.00 1006.3
20260906083018 -17 0.0 0.0 0.00 0.00 0.00 1006.5
20260906081514 -17 0.0 0.0 0.00 0.00 0.00 1006.6
20260906080059 -17 0.0 0.0 0.00 0.00 0.00 1006.6
20260906074551 13 90 0.0 0.0 0.00 0.00 0.00 45 1006.8
20260906073039 13 90 0.0 1.6 0.00 0.00 0.00 46 1006.7
20260906071537 12 91 1.6 4.8 0.00 0.00 0.00 52 1006.6
20260906070014 11 41 0.0 3.2 0.00 0.00 0.00 62 1006.5
20260906064514 12 83 0.0 0.0 0.00 0.00 0.00 49 1006.4
20260906063057 12 83 0.0 0.0 0.00 0.00 0.00 48 1006.3
20260906061551 13 83 0.0 0.0 0.00 0.00 0.00 44 1006.2
20260906060034 14 84 0.0 3.2 0.00 0.00 0.00 41 1006.1
20260906054528 14 8 0.0 1.6 0.00 0.00 0.00 43 1006.1
20260906053010 14 8 0.0 1.6 0.00 0.00 0.00 50 1006.3
20260906051509 14 8 0.0 0.0 0.00 0.00 0.00 46 1006.3
20260906050048 15 8 0.0 0.0 0.00 0.00 0.00 47 1006.4
20260906044547 15 8 0.0 3.2 0.00 0.00 0.00 44 1006.4
20260906043032 15 354 1.6 4.8 0.00 0.00 0.00 45 1006.4
20260906041526 16 319 1.6 3.2 0.00 0.00 0.00 40 1006.4
20260906040009 16 274 1.6 4.8 0.00 0.00 0.00 39 1006.4
20260906034506 17 56 1.6 4.8 0.00 0.00 0.00 37 1006.3
20260906033046 17 47 0.0 6.4 0.00 0.00 0.00 37 1006.3
20260906031547 17 85 1.6 6.4 0.00 0.00 0.00 38 1006.3
20260906030027 17 89 3.2 6.4 0.00 0.00 0.00 39 1006.3
20260906024526 17 71 3.2 6.4 0.00 0.00 0.00 39 1006.3
20260906023006 17 73 1.6 4.8 0.00 0.00 0.00 40 1006.1
20260906021505 18 119 3.2 8.0 0.00 0.00 0.00 41 1006.0
20260906020048 20 121 4.8 6.4 0.00 0.00 0.00 37 1005.9
20260906014551 22 181 6.4 12.9 0.00 0.00 0.00 27 1005.9
20260906013019 23 175 8.0 14.5 0.00 0.00 0.00 25 1006.0
20260906011533 24 176 9.7 14.5 0.00 0.00 0.00 23 1006.0
20260906010007 25 256 9.7 22.5 0.00 0.00 0.00 23 1006.0
20260906004507 25 230 16.1 30.6 0.00 0.00 0.00 22 1005.9
20260906003005 25 304 16.1 25.7 0.00 0.00 0.00 21 1006.0
20260906001504 26 231 22.5 33.8 0.00 0.00 0.00 20 1005.9
20260906000004 26 225 19.3 30.6 0.00 0.00 0.00 20 1005.9
20260905234503 26 248 24.1 37.0 0.00 0.00 0.00 19 1005.9
20260905233002 26 224 27.4 43.5 0.00 0.00 0.00 20 1006.0